Location: 10033 Water Well
(34.0865°N, 106.8959°W)
Time: 16:20:36
(UTC+00:00)

Cosmos 332 Rocket - Pass Details

Date: 13 January 2026
Orbit: 672 x 693 km, 74.0° (Epoch: 11 February)

Event Time Altitude Azimuth Distance (km) Brightness Sun altitude
Rises 01:32:35 0° 349° (N) 3,035 7.1 -15.1°
Reaches altitude 10° 01:34:58 10° 355° (N) 2,120 6.2 -15.6°
Maximum altitude 01:39:35 48° 70° (ENE) 888 3.9 -16.5°
Drops below altitude 10° 01:44:11 10° 145° (SE) 2,121 6.1 -17.4°
Sets 01:46:34 0° 151° (SSE) 3,036 7.0 -17.9°
